Vorticity
8 8 8 8 8 7 7 6 4 4 4 4 4 5 5 3 0 -2 -2 1 4 6 5 1 0 2 6 6 7 7 9 9 9 8 6 3 1 1 1 2 2 2 3 3 3 4 4 5 5 5 4 4 4 5 6 6 7 8 9 8 7 6 6 6 6 9 15 14 10 6 6 9 13 14 12 8 6 6 6 6 7 6 6 5 4 3 1 4 5 5 5 6 6 6 5 6 7 7 6 6 6 6 6
9 8 8 8 8 8 8 7 6 5 4 4 4 5 5 4 3 1 -2 -2 0 3 6 4 1 0 3 6 6 6 6 6 7 7 6 5 4 4 2 2 2 2 3 3 3 3 3 3 3 3 2 2 2 2 3 4 5 6 7 7 7 6 4 4 4 7 14 12 8 6 5 7 10 12 14 9 7 6 6 6 7 7 6 6 5 4 2 3 4 4 5 6 6 5 5 6 7 8 7 7 7 7 7
9 8 8 8 8 8 8 8 7 6 5 4 4 4 5 5 5 3 2 -0 -0 1 3 5 3 0 1 4 5 6 6 6 6 6 6 6 5 4 4 4 4 3 2 3 3 3 2 2 2 2 1 1 1 2 3 4 4 5 6 6 6 6 5 4 4 6 11 8 7 6 5 6 7 10 12 10 7 6 6 6 6 7 7 7 6 5 4 3 3 4 5 6 5 5 5 6 7 8 8 7 7 8 8
9 9 8 8 8 8 8 8 8 8 6 5 4 4 5 6 6 6 5 4 2 1 1 4 3 2 1 3 5 6 6 6 6 6 7 7 6 6 8 8 9 7 4 3 2 2 2 2 2 2 1 2 2 3 5 5 6 5 5 6 6 6 6 5 5 6 9 6 5 5 4 4 5 7 9 10 8 5 6 6 6 7 7 7 7 6 4 4 4 4 5 5 5 5 5 6 6 7 8 8 8 8 8
9 9 9 8 8 8 8 8 8 9 8 7 5 4 4 5 6 7 7 7 6 4 3 3 3 3 0 2 4 6 7 6 6 6 7 8 8 8 8 8 8 8 7 4 3 2 2 2 2 2 2 3 4 5 6 7 7 7 6 6 6 6 6 6 6 7 8 6 5 4 4 4 4 5 7 10 8 5 4 5 6 6 7 7 7 7 5 4 4 5 6 6 5 4 4 5 5 6 7 8 8 8 7
10 9 9 9 8 8 7 8 8 9 9 8 7 6 4 4 5 6 7 8 8 7 6 4 4 3 0 1 3 6 7 7 6 6 8 11 11 10 8 6 4 4 5 5 4 4 2 2 2 2 3 4 5 6 7 8 8 8 7 6 6 6 7 7 7 7 7 7 5 4 4 5 5 5 6 9 8 6 3 4 5 6 6 7 7 7 6 4 3 4 7 7 6 4 4 4 4 4 6 7 8 8 8
10 10 10 9 9 8 8 8 8 8 9 9 9 8 6 5 4 4 5 7 8 8 8 7 6 5 3 1 1 4 6 7 8 7 5 6 7 8 8 6 4 4 6 6 6 6 5 4 4 3 4 5 6 7 8 8 8 9 8 7 7 7 6 7 7 7 7 7 6 5 4 5 6 5 4 7 9 8 3 4 4 5 6 6 7 8 7 5 3 3 6 7 7 6 4 4 3 3 4 6 7 8 8
9 10 10 10 9 9 8 8 8 8 8 8 9 9 8 7 5 4 4 5 6 7 8 9 8 8 6 2 0 1 4 6 8 9 7 4 3 3 4 5 6 6 6 6 7 7 7 6 5 4 4 5 6 7 7 7 8 8 8 8 8 7 7 7 6 6 6 7 8 8 6 6 6 6 4 5 8 10 6 4 4 4 5 6 6 7 8 6 4 3 3 6 7 6 5 4 3 3 3 4 5 7 7
8 9 10 10 9 9 8 8 8 8 7 8 9 9 9 8 7 6 5 4 5 6 7 8 9 9 9 5 1 -1 1 4 6 8 9 8 6 4 3 7 8 7 6 6 6 6 7 7 6 5 4 4 6 6 6 6 6 7 8 8 8 7 7 6 6 6 6 8 9 10 9 7 6 6 5 4 6 9 11 7 4 4 4 5 6 6 7 7 6 4 2 4 4 5 4 4 3 2 2 2 4 5 6
7 8 9 10 10 10 9 8 8 8 7 7 8 9 9 9 9 8 6 5 5 5 6 7 8 9 10 8 5 1 -2 0 4 7 10 9 8 7 6 7 8 9 7 6 5 5 5 6 6 5 4 4 5 6 6 5 5 5 6 7 8 8 7 6 6 6 7 10 11 10 10 8 7 6 6 4 4 6 10 10 7 5 4 4 5 6 6 7 7 6 4 3 3 3 2 2 2 2 2 2 2 3 5
6 7 7 9 10 10 10 10 9 8 8 7 7 8 8 9 9 9 8 7 6 5 5 6 7 8 10 10 8 5 1 -1 0 3 7 8 9 9 9 7 7 9 10 8 7 5 4 4 4 5 5 5 5 5 5 4 4 4 4 6 7 7 7 7 6 7 9 12 13 12 10 8 7 6 6 5 4 5 7 10 10 7 4 4 4 5 6 6 7 8 7 5 4 2 1 1 1 2 2 1 1 2 3
6 6 7 7 8 10 10 10 10 9 8 8 7 7 7 8 8 9 9 8 7 6 4 5 6 7 8 9 9 8 6 2 1 1 3 4 6 8 10 8 8 8 10 10 9 7 6 4 4 4 5 6 6 5 5 4 3 3 3 4 6 7 8 8 9 11 13 15 15 13 10 8 7 6 6 5 5 6 6 7 9 10 7 5 4 4 5 6 6 7 8 8 6 4 2 0 0 1 1 1 1 1 1
6 6 6 7 7 8 9 10 10 10 10 9 8 7 6 7 7 8 8 8 8 6 5 4 4 5 6 8 9 9 8 6 5 3 2 2 2 4 5 6 7 7 9 10 10 9 7 6 5 5 5 6 6 6 5 5 4 2 2 3 5 6 7 9 12 15 17 16 14 12 11 9 8 7 6 6 6 6 6 6 7 8 8 6 5 4 4 5 6 6 7 8 9 8 6 3 2 1 1 1 1 0 0
5 5 6 6 6 6 7 8 9 10 10 10 10 9 8 7 7 7 8 8 8 7 6 5 4 4 5 6 7 8 8 8 7 6 4 3 1 1 1 3 4 4 6 8 10 11 9 7 6 5 5 6 6 6 6 5 4 3 2 2 4 6 7 10 12 14 15 13 10 9 11 11 10 9 7 6 6 6 6 7 7 7 7 7 6 5 4 4 5 5 6 7 8 9 9 7 5 4 3 2 2 1 0
4 4 4 5 5 5 6 7 8 9 10 11 11 11 10 9 8 7 7 7 8 8 7 6 5 4 4 6 7 8 8 8 8 8 7 6 4 2 1 2 2 2 3 5 7 9 10 8 7 6 6 5 6 6 6 6 5 4 2 2 3 5 7 9 9 7 5 5 6 8 12 13 12 10 8 7 6 6 6 7 7 7 6 7 7 7 5 4 4 5 5 6 7 8 9 9 8 6 5 4 3 2 1
5 5 4 4 4 4 5 5 6 7 8 10 10 11 12 11 10 9 7 7 7 8 8 7 6 6 5 6 6 7 8 8 9 9 9 9 7 6 4 4 4 4 3 3 4 6 10 9 8 6 6 5 5 5 6 6 6 5 3 2 2 4 6 8 6 1 -6 -7 -3 3 10 12 12 11 9 7 6 6 6 7 7 7 7 7 7 7 7 5 4 4 5 6 6 7 8 9 9 8 7 6 5 4 3
7 6 5 5 4 4 4 4 4 5 6 7 9 10 11 12 12 12 10 8 8 7 8 7 7 6 6 7 7 7 8 8 9 9 10 10 10 10 9 8 8 7 6 5 5 6 8 10 9 8 6 5 5 5 6 6 6 6 4 3 2 3 4 7 6 2 -6 -10 -9 -6 -0 4 7 8 9 7 6 6 6 7 8 8 7 7 6 7 9 7 5 4 4 5 6 6 7 8 8 8 8 8 7 6 5
8 7 6 6 5 5 4 4 4 4 4 5 6 8 9 11 12 13 13 11 10 8 8 7 7 7 7 8 8 8 8 8 8 8 8 10 11 12 12 11 10 10 9 8 7 7 7 9 10 9 7 6 5 5 5 6 6 6 6 4 3 3 4 6 6 5 1 -2 -5 -7 -8 -6 -2 2 6 6 6 6 6 7 8 8 8 7 6 5 5 7 7 5 3 4 5 6 7 7 8 8 8 8 7 7 7
9 8 7 7 6 6 5 5 4 4 4 4 4 5 6 8 10 12 13 13 13 11 9 8 7 7 8 8 9 9 9 8 7 6 6 7 8 10 11 12 11 10 9 9 8 8 8 9 10 10 10 7 6 5 5 6 6 7 7 6 4 3 3 4 5 6 5 4 2 -0 -4 -7 -7 -4 1 4 6 6 7 7 7 8 8 8 6 5 3 5 6 6 4 4 4 6 7 7 8 8 8 8 8 7 7
12 10 9 8 8 7 7 6 5 5 4 3 3 3 4 5 7 10 12 13 14 14 12 10 8 7 7 8 9 9 9 9 9 8 7 6 6 7 9 10 10 10 10 9 8 8 8 8 10 12 12 10 8 6 5 6 6 7 8 7 6 4 3 3 4 4 4 5 5 4 2 -2 -5 -5 -2 3 5 6 6 6 6 7 8 8 7 6 4 4 4 5 5 4 4 5 6 7 8 8 7 7 7 7 7
17 15 12 10 9 8 8 7 7 6 5 4 4 3 2 3 4 6 8 11 13 14 15 13 11 8 7 8 8 10 10 11 11 11 10 6 4 4 5 6 7 8 8 7 6 7 7 7 9 12 15 13 11 8 6 6 6 6 7 8 7 6 4 3 3 3 3 4 5 6 5 3 0 -2 0 4 6 6 4 4 5 6 8 8 7 6 4 3 3 3 4 4 4 4 6 7 8 8 8 7 7 7 7
21 20 18 15 13 11 10 9 8 8 7 6 5 4 3 2 3 3 5 7 10 12 15 15 14 11 8 7 8 9 11 11 10 9 7 5 4 4 4 6 7 8 8 7 7 8 9 9 9 11 17 17 15 12 8 6 5 5 6 7 7 7 6 4 3 3 3 4 6 8 8 8 6 4 3 5 7 8 7 6 5 6 7 8 8 7 6 6 5 5 4 4 4 4 5 7 8 8 8 7 7 7 7
24 23 22 20 18 16 14 12 11 10 9 8 7 6 5 4 3 2 2 4 6 8 11 14 15 14 12 9 8 8 9 10 8 6 5 5 5 6 7 11 14 16 18 18 18 17 16 13 13 16 23 22 20 16 12 8 6 5 5 6 8 9 9 7 6 4 4 3 6 8 10 10 10 8 4 4 5 8 11 9 7 6 7 7 8 8 8 8 8 7 6 5 4 4 5 6 7 8 8 8 7 7 7
24 25 25 24 23 21 19 17 15 14 13 11 9 8 7 6 5 3 2 2 3 4 7 9 12 14 14 12 10 8 7 8 7 7 6 6 7 8 9 13 19 24 29 30 30 27 21 17 22 27 28 22 20 19 18 13 10 8 8 8 9 10 11 12 11 8 5 4 4 6 7 9 9 8 6 3 2 5 11 12 11 9 8 8 8 8 8 9 9 8 7 6 5 4 4 6 7 8 8 8 8 7 7
21 23 23 25 25 24 23 22 20 18 17 15 13 12 10 9 7 6 4 2 2 2 3 5 8 10 13 13 12 10 8 7 7 8 9 8 9 9 8 8 14 21 28 29 29 27 21 15 18 23 22 15 14 17 20 17 13 11 11 12 12 10 9 10 10 10 7 6 5 4 5 6 7 8 6 2 -0 1 8 12 13 13 11 10 9 9 9 9 9 9 8 6 5 4 4 5 6 7 8 8 8 7 7
15 17 18 21 23 24 24 25 24 22 20 19 18 17 15 13 11 9 7 5 3 1 1 2 4 6 9 11 12 12 10 8 7 8 9 10 11 10 8 5 7 12 17 17 18 18 16 4 -3 -3 7 7 10 14 18 16 14 12 11 12 12 11 9 8 7 7 7 6 5 5 4 4 5 6 6 4 -0 -2 1 7 11 12 12 11 10 10 10 9 9 9 8 7 6 5 4 4 5 6 8 8 8 8 7
10 12 12 15 18 20 22 24 24 24 23 22 22 22 21 19 16 13 11 9 6 4 2 1 1 3 5 8 10 12 12 11 10 9 10 11 13 14 12 6 3 3 6 7 8 10 13 0 -14 -17 0 9 14 17 18 16 13 11 9 9 9 9 10 10 9 8 7 6 5 5 4 4 4 5 6 5 2 -2 -4 1 6 10 13 12 11 11 10 10 10 9 9 8 7 6 4 4 4 5 6 8 8 8 8
8 9 10 11 13 14 17 20 22 23 22 21 21 23 25 25 23 19 16 14 11 8 5 3 1 1 2 4 7 9 11 12 12 11 11 10 12 15 17 8 2 -3 -4 2 7 12 19 10 -2 -8 3 14 16 15 16 16 15 12 9 9 8 7 5 7 8 8 8 7 6 6 5 4 4 4 5 6 5 2 -2 -2 0 4 8 10 11 11 11 10 10 10 9 8 7 6 5 4 4 4 5 6 7 8 8
6 7 8 9 10 11 13 15 18 20 20 20 19 19 21 26 27 25 22 19 16 14 11 7 4 2 0 1 3 6 8 10 12 12 12 9 10 13 19 13 4 -5 -9 -5 3 12 20 21 16 12 13 13 11 8 9 13 18 21 19 16 13 10 6 6 6 6 7 7 7 6 5 6 5 4 4 5 5 4 3 -1 -2 -1 2 5 7 9 10 11 10 10 10 9 8 7 7 5 4 4 4 5 6 8 8
6 6 7 7 7 8 10 12 14 16 18 18 18 16 16 20 24 27 27 24 22 19 16 13 10 6 2 0 0 2 4 7 9 11 12 10 9 10 15 15 7 -2 -9 -10 -5 1 6 13 18 17 11 6 4 4 5 7 12 17 20 21 18 14 12 10 9 9 8 8 7 6 5 5 6 6 5 5 5 5 4 1 -1 -2 -2 1 3 5 7 10 10 10 10 9 9 8 8 7 5 4 4 4 5 6 8
6 7 7 6 6 7 8 9 10 12 13 16 16 16 15 16 18 22 26 27 26 24 21 18 16 12 8 4 1 0 1 3 6 8 10 11 9 8 9 13 10 4 -6 -10 -11 -11 -10 -2 6 9 4 3 3 3 1 2 4 5 5 10 13 15 14 13 13 12 11 10 10 8 6 6 7 7 7 5 4 4 5 2 -0 -1 -1 -1 -0 1 2 8 11 12 10 9 9 8 8 8 7 6 4 4 4 6 7
6 7 7 7 7 7 7 8 8 8 9 12 13 14 15 15 15 16 19 24 27 27 26 24 21 18 15 10 5 2 -0 1 2 5 8 11 10 7 4 8 10 9 2 -4 -9 -13 -14 -10 -5 -2 0 2 6 8 3 -2 -4 -4 -2 3 9 14 16 16 15 14 13 12 12 10 8 8 9 9 8 6 4 4 6 4 2 1 1 1 0 0 1 6 10 13 13 10 9 8 8 8 7 7 6 5 4 5 6
6 6 7 7 7 8 8 8 7 6 6 8 10 12 14 14 14 13 14 17 21 25 29 28 26 24 20 17 13 8 3 1 1 2 4 9 11 10 4 3 6 10 10 4 -2 -8 -12 -12 -15 -15 -10 -3 4 9 10 3 -2 -4 -1 4 8 12 15 16 17 17 16 17 16 14 10 8 9 10 10 9 7 5 6 6 4 2 2 3 3 2 2 2 6 10 13 13 11 9 8 8 8 7 7 6 5 4 5
6 6 6 6 7 7 8 8 7 6 6 6 7 9 10 12 13 13 13 13 14 17 22 27 29 28 26 23 20 16 10 5 2 1 2 5 9 10 7 2 2 6 11 10 6 1 -5 -11 -16 -20 -20 -15 -8 -1 6 6 5 3 1 3 5 8 11 13 16 17 17 16 17 16 13 10 9 9 10 10 10 8 7 7 6 4 2 3 4 3 2 2 3 6 10 14 14 12 9 8 8 8 7 7 6 5 4
6 6 6 6 7 7 8 8 7 7 6 6 6 6 8 9 10 11 12 12 12 12 13 18 23 27 28 27 25 22 18 13 8 4 2 2 5 8 9 4 1 1 6 11 12 9 2 -6 -12 -17 -19 -18 -15 -9 -2 2 6 7 6 3 2 3 6 8 12 14 15 12 11 11 12 11 11 11 11 11 10 10 8 7 6 6 5 4 4 5 4 2 3 4 6 10 13 14 13 10 9 8 8 7 6 5 4
8 7 7 7 7 8 7 7 7 7 7 7 6 6 6 7 8 9 11 12 12 12 11 12 15 19 24 26 26 25 23 20 15 10 5 3 3 5 8 6 4 2 2 6 11 13 10 2 -6 -10 -11 -10 -9 -7 -4 -0 3 6 7 4 1 -0 1 4 7 10 12 11 10 9 10 12 13 12 12 10 10 9 8 7 7 6 5 5 6 6 7 5 4 3 3 6 9 12 15 14 12 10 8 8 7 6 5
9 9 8 8 8 8 8 8 7 7 7 7 7 7 7 6 7 8 10 11 12 12 12 12 12 13 16 21 23 24 25 25 22 18 12 7 4 3 4 6 5 4 3 4 7 11 14 8 2 -3 -5 -3 -0 2 2 2 3 5 6 5 3 0 -2 -0 2 5 8 9 10 11 12 14 14 14 13 11 10 9 8 7 7 6 5 4 5 6 8 8 6 4 4 4 5 7 10 13 14 13 10 9 8 7 6
11 10 10 10 10 10 10 9 8 8 7 7 7 8 8 8 8 8 8 9 11 12 13 13 13 12 12 15 18 20 24 25 25 23 20 15 10 5 2 3 4 4 4 4 5 8 11 11 8 4 0 1 3 6 8 8 7 6 6 5 4 2 -0 -1 -1 1 4 6 8 10 11 13 14 15 15 14 12 11 9 8 7 6 4 4 4 5 7 8 8 7 5 4 4 4 6 8 11 13 12 10 9 8 7
11 11 11 10 10 10 10 10 10 9 8 7 7 7 8 9 9 8 7 8 9 11 13 14 14 13 13 13 14 16 19 23 25 25 24 22 18 12 6 4 3 3 3 4 5 6 8 10 10 9 6 4 4 5 7 9 9 9 7 6 5 4 3 1 0 0 2 4 6 7 8 10 12 14 15 16 15 14 12 10 9 7 4 4 4 4 5 7 8 8 6 5 5 5 5 6 9 12 13 11 10 9 8
12 11 11 11 11 10 10 11 11 10 9 8 7 7 8 9 10 9 8 7 8 9 11 14 15 15 15 14 13 13 14 18 22 24 26 26 23 19 14 9 5 3 2 3 4 6 7 9 10 10 10 8 6 5 6 7 9 10 9 8 6 5 4 4 3 2 1 3 4 5 6 7 9 11 13 15 16 16 16 14 12 10 7 4 4 4 5 5 7 8 6 5 5 5 5 5 7 10 13 12 11 10 9
13 12 12 11 11 11 10 11 11 10 10 9 8 8 8 9 9 10 10 8 7 8 9 11 14 16 17 16 15 14 12 13 17 20 24 25 26 25 22 17 11 6 3 2 2 4 6 8 10 11 11 10 9 7 5 6 7 8 9 8 7 6 5 5 5 4 2 2 4 5 5 6 6 8 10 12 14 16 17 16 15 13 10 7 4 3 4 5 6 7 7 5 5 5 5 5 5 6 9 11 12 11 10
15 15 14 13 12 12 11 11 11 10 10 10 9 9 9 9 9 10 11 10 8 7 7 9 11 13 16 17 17 16 14 13 13 15 19 22 24 26 27 23 18 12 7 4 2 2 2 5 8 10 11 12 11 9 6 6 6 7 8 8 7 7 6 5 4 3 2 2 2 4 5 4 5 6 8 10 12 14 15 16 16 15 13 11 7 4 3 4 5 6 7 5 5 6 5 6 6 6 6 8 10 12 11
19 19 18 17 16 15 13 13 12 11 11 10 10 10 10 9 9 10 12 11 10 9 7 8 10 11 13 15 16 17 17 15 13 13 14 18 20 23 26 26 24 19 14 9 5 2 1 2 4 7 10 12 12 10 8 7 6 6 6 5 6 6 6 5 4 3 1 0 0 1 2 4 4 5 6 8 9 11 13 14 15 15 15 13 11 8 5 3 4 5 6 5 5 6 5 6 6 7 7 7 9 11 13
22 22 22 21 20 19 18 17 15 14 13 12 12 11 10 10 10 10 11 12 12 11 9 8 9 10 11 13 14 16 18 18 16 14 13 14 17 19 22 24 25 24 21 15 10 6 2 1 2 4 7 10 11 12 10 8 7 7 6 4 3 4 6 6 6 5 3 1 0 -0 0 3 4 4 5 6 8 9 10 12 13 14 15 14 13 11 9 5 3 3 4 5 6 6 5 5 6 8 7 8 8 9 11
21 22 22 23 23 23 22 21 20 18 17 15 14 13 12 11 11 11 11 11 12 12 12 10 9 10 11 12 13 14 16 18 18 17 15 14 14 16 18 21 23 25 25 21 16 11 7 4 2 2 3 6 9 11 12 10 9 8 7 4 2 1 3 5 7 8 7 5 3 2 1 2 2 3 4 6 7 8 8 10 11 13 14 14 14 13 12 9 6 4 2 3 4 5 4 5 6 8 7 8 8 7 8
17 18 19 20 22 23 23 24 23 22 21 19 18 16 14 13 12 12 11 11 12 12 12 11 10 10 11 12 12 13 14 16 18 19 18 16 15 15 16 17 20 22 25 24 21 18 13 8 4 2 1 3 6 9 11 11 11 10 10 7 4 2 1 2 4 7 9 8 7 6 4 2 2 2 4 5 6 7 8 9 10 11 12 13 13 13 13 12 10 7 4 2 3 4 4 5 6 7 7 8 8 7 6
12 13 14 16 17 19 21 22 23 24 24 23 21 20 18 16 15 14 13 12 12 12 11 11 10 10 10 10 11 12 12 13 15 17 19 18 16 16 16 16 17 19 22 24 24 22 20 15 10 5 2 2 4 6 9 10 11 11 11 10 8 5 4 2 2 3 6 8 8 8 7 6 4 4 4 6 7 8 8 8 9 10 11 12 13 13 13 13 13 11 8 5 3 2 2 4 5 6 7 8 8 7 7
8 8 10 11 12 13 15 17 20 22 23 24 24 23 21 19 17 16 14 14 13 13 12 11 10 10 10 10 10 11 12 12 13 15 18 19 18 16 15 17 18 18 18 21 23 24 23 20 17 12 6 4 3 4 6 7 9 10 11 11 10 9 8 6 3 2 4 6 8 9 9 8 7 6 6 7 8 8 9 9 9 10 11 12 12 13 13 13 13 13 12 9 6 3 3 3 3 4 6 7 7 7 7
6 7 7 7 8 9 10 12 14 17 19 22 23 24 23 22 20 18 16 15 15 14 13 12 11 12 12 12 12 12 12 12 12 13 15 18 19 17 14 16 18 19 18 18 20 22 23 23 21 18 13 8 5 4 4 5 6 7 8 9 10 10 11 9 8 8 7 9 11 12 12 10 9 8 8 8 8 8 9 9 10 10 11 11 12 12 13 13 13 13 13 12 9 6 5 3 2 2 4 6 6 5 5
7 7 7 7 7 7 7 8 9 11 14 17 19 21 23 23 22 20 18 17 15 15 14 13 12 11 13 14 14 13 13 12 12 12 13 14 17 20 20 15 15 16 18 18 18 19 22 24 24 23 19 15 10 6 4 4 5 6 6 7 7 8 9 9 11 13 14 18 20 21 19 13 10 8 8 8 8 8 9 10 10 10 11 11 12 12 12 12 13 13 14 13 12 10 7 5 3 2 3 4 5 5 4
7 7 7 7 7 7 6 6 7 8 9 11 14 17 19 21 22 21 20 18 16 15 15 14 12 11 12 14 14 14 14 13 13 13 13 11 12 17 25 24 20 15 14 15 16 18 19 22 24 25 24 20 16 11 7 6 6 6 6 7 7 7 6 7 10 12 13 15 22 28 28 16 10 8 9 9 9 10 10 11 11 11 11 11 12 12 12 12 12 13 13 14 13 12 10 8 5 3 4 2 3 5 6
7 7 7 7 7 7 7 6 6 6 7 8 9 12 15 17 19 21 21 20 18 17 16 16 15 13 11 12 13 14 14 14 14 14 14 13 11 11 17 26 27 24 18 15 14 15 19 22 23 23 25 24 20 16 12 9 7 7 7 8 7 7 7 6 8 9 8 0 3 10 18 13 11 10 11 11 10 11 12 12 12 12 12 12 12 12 12 12 12 13 13 14 14 14 13 10 8 6 4 2 2 4 6
7 7 7 7 7 7 7 7 6 6 6 6 7 8 10 13 16 18 20 20 20 19 18 17 16 14 13 11 12 13 14 14 15 14 14 14 14 14 13 15 18 22 23 27 22 15 10 17 22 25 27 27 25 21 17 13 10 8 9 9 9 8 7 7 7 6 4 -7 -10 -7 2 8 10 10 11 10 10 9 10 11 12 12 13 13 13 14 13 13 13 13 13 13 14 14 14 13 11 9 6 4 2 3 4
7 7 7 7 7 6 7 7 7 7 7 6 6 7 7 9 12 14 17 19 20 20 19 17 16 15 14 12 11 12 13 14 14 14 14 13 15 16 14 9 10 13 19 26 29 24 10 8 12 18 24 30 30 26 19 15 12 10 9 9 10 9 8 7 7 6 3 -5 -9 -7 0 3 5 7 7 7 6 6 6 8 9 10 11 12 13 14 13 12 13 13 14 14 14 14 14 14 12 11 9 6 4 2 4
7 7 7 7 7 7 7 7 7 7 7 7 7 6 6 7 8 10 13 16 18 19 19 18 17 16 16 14 13 12 13 14 14 14 14 13 13 13 14 14 14 14 15 16 19 22 28 22 17 13 10 22 30 32 25 20 20 19 13 11 10 10 9 8 7 6 4 -0 -2 -2 -1 2 3 4 3 3 3 3 3 5 7 7 8 10 12 13 13 13 13 14 15 15 14 14 14 13 13 12 10 8 6 4 3
8 7 7 7 7 7 7 7 7 7 7 7 7 7 7 7 7 8 10 12 14 17 19 19 19 18 17 17 16 14 13 13 14 14 14 14 13 11 10 14 17 20 21 15 10 10 19 31 33 25 7 10 20 31 32 28 24 23 24 19 16 13 12 10 8 7 6 4 4 3 2 3 3 2 1 0 1 1 1 3 5 6 6 7 9 11 12 13 14 15 16 16 16 14 14 14 13 13 12 10 8 6 3
8 8 8 8 8 7 7 7 7 7 7 7 7 7 7 7 7 7 7 9 11 14 16 18 19 18 18 17 17 16 14 13 13 13 14 14 14 13 11 10 11 12 15 18 19 18 13 22 29 30 19 7 10 19 26 27 23 20 20 21 20 18 16 13 11 8 7 7 6 6 5 4 4 3 1 0 0 1 0 2 4 4 4 5 6 8 10 12 13 15 17 17 16 15 15 15 14 14 13 11 10 8 5
9 9 9 8 8 8 8 8 8 7 7 7 7 7 7 7 7 7 7 7 9 10 13 16 18 18 18 17 16 15 14 13 13 13 13 14 14 13 12 10 9 8 9 10 14 19 25 19 18 22 33 19 10 8 18 21 21 19 19 20 20 19 18 17 15 13 10 8 7 7 7 6 5 4 4 2 2 1 0 2 2 3 3 3 4 6 7 9 11 13 16 16 16 16 15 15 15 15 14 12 11 9 7
10 10 9 9 9 8 8 8 8 8 8 8 7 7 7 7 7 7 7 7 7 8 10 13 15 17 17 16 16 15 14 13 13 13 13 13 13 13 13 12 11 10 9 10 12 15 20 19 16 18 32 38 22 6 10 18 19 18 19 21 21 20 18 18 17 17 15 13 10 9 8 6 6 6 6 5 4 3 2 2 2 2 2 2 3 4 4 6 8 11 13 15 15 15 14 15 15 15 14 13 12 10 9
10 10 10 10 9 9 9 8 8 8 8 8 8 8 8 8 8 7 7 7 7 7 8 10 13 15 16 17 16 16 14 14 14 13 13 13 12 12 13 12 11 10 9 9 10 11 12 13 14 17 25 33 30 21 12 16 18 17 14 16 20 21 19 18 18 18 18 17 15 13 11 10 8 7 6 7 7 7 6 4 3 2 1 1 1 1 2 3 5 8 11 13 14 14 14 14 14 15 15 14 12 11 10
11 11 11 10 10 10 9 9 9 8 8 8 8 8 8 8 8 8 8 7 7 7 7 8 10 13 15 16 16 16 15 15 14 13 12 13 13 13 12 12 12 11 10 9 9 9 10 10 11 13 19 21 26 30 26 18 17 16 12 9 13 18 21 21 20 19 18 19 18 17 15 13 11 9 8 8 9 10 9 6 4 3 2 1 0 -0 -0 1 2 5 8 10 12 13 13 13 13 14 14 14 13 12 11
Height
3161 3161 3161 3160 3160 3159 3159 3158 3158 3158 3158 3158 3157 3157 3157 3157 3157 3157 3157 3157 3157 3157 3156 3156 3156 3156 3155 3155 3154 3155 3155 3156 3156 3155 3155 3155 3156 3156 3156 3156 3156 3157 3157 3157 3158 3158 3159 3159 3159 3159 3159 3160 3160 3160 3160 3160 3160 3160 3161 3162 3162 3163 3164 3165 3165 3166 3167 3168 3168 3167 3168 3168 3169 3169 3170 3171 3171 3172 3172 3173 3173 3174 3174 3175 3176 3177 3178 3178 3179 3180 3180 3181 3181 3182 3182 3183 3183 3184 3184 3185 3186 3186 3187
3159 3158 3158 3158 3157 3157 3157 3156 3156 3156 3156 3155 3155 3155 3155 3155 3154 3155 3155 3155 3155 3155 3154 3154 3155 3155 3154 3153 3153 3152 3153 3153 3153 3153 3154 3154 3154 3154 3154 3154 3155 3155 3155 3156 3156 3157 3157 3157 3158 3158 3158 3158 3158 3159 3159 3159 3159 3159 3160 3160 3161 3162 3162 3163 3164 3165 3166 3167 3167 3167 3167 3167 3167 3168 3169 3169 3170 3170 3171 3172 3172 3172 3173 3174 3175 3176 3177 3177 3178 3179 3179 3180 3180 3181 3181 3182 3182 3183 3184 3184 3185 3185 3186
3156 3156 3156 3155 3155 3155 3154 3154 3154 3153 3153 3153 3153 3153 3152 3152 3152 3152 3152 3152 3152 3152 3152 3152 3153 3153 3153 3152 3151 3151 3151 3151 3151 3151 3151 3152 3152 3152 3152 3152 3153 3153 3153 3154 3154 3155 3155 3156 3156 3157 3157 3157 3157 3157 3157 3157 3157 3157 3158 3159 3160 3160 3161 3162 3162 3163 3165 3166 3166 3165 3165 3166 3166 3167 3167 3167 3168 3169 3170 3170 3171 3171 3172 3173 3174 3175 3176 3176 3177 3178 3178 3179 3179 3180 3181 3181 3182 3182 3183 3183 3184 3184 3185
3153 3153 3153 3152 3152 3152 3152 3152 3151 3151 3151 3151 3151 3150 3150 3150 3150 3150 3150 3150 3150 3150 3150 3150 3151 3151 3151 3151 3149 3149 3149 3149 3149 3149 3149 3149 3149 3150 3151 3152 3151 3151 3151 3152 3152 3153 3154 3154 3155 3155 3155 3155 3156 3156 3156 3156 3156 3156 3156 3157 3158 3159 3160 3161 3161 3162 3163 3164 3164 3164 3163 3164 3165 3165 3166 3166 3167 3167 3168 3169 3169 3170 3171 3172 3173 3174 3175 3175 3176 3177 3177 3178 3178 3179 3180 3180 3181 3182 3182 3182 3183 3184 3184
3151 3151 3150 3150 3150 3149 3149 3149 3149 3149 3148 3148 3148 3148 3148 3148 3147 3147 3147 3147 3147 3147 3148 3148 3148 3148 3149 3149 3148 3147 3147 3147 3147 3147 3147 3147 3147 3148 3148 3149 3149 3149 3149 3150 3150 3151 3152 3152 3153 3153 3153 3154 3154 3154 3154 3155 3154 3154 3155 3156 3157 3157 3158 3159 3160 3161 3161 3162 3163 3163 3162 3163 3163 3164 3164 3164 3165 3166 3167 3167 3168 3169 3169 3170 3172 3172 3173 3174 3175 3176 3176 3177 3177 3178 3179 3179 3180 3181 3181 3182 3182 3182 3183
3148 3148 3147 3147 3147 3147 3146 3146 3146 3146 3146 3146 3146 3145 3145 3145 3145 3145 3145 3145 3145 3145 3145 3145 3145 3146 3146 3147 3146 3145 3145 3145 3144 3145 3145 3145 3145 3146 3146 3146 3146 3147 3147 3147 3148 3149 3149 3150 3151 3151 3152 3152 3152 3153 3153 3153 3153 3153 3153 3154 3155 3156 3157 3157 3158 3159 3160 3160 3161 3162 3161 3162 3162 3163 3163 3163 3164 3164 3165 3166 3167 3167 3168 3169 3170 3171 3172 3173 3173 3174 3175 3176 3177 3177 3178 3178 3179 3180 3180 3181 3181 3182 3182
3146 3145 3145 3144 3144 3144 3143 3143 3143 3143 3143 3143 3143 3143 3143 3142 3142 3143 3142 3142 3142 3142 3142 3142 3142 3143 3143 3144 3144 3143 3143 3143 3142 3142 3143 3143 3143 3144 3143 3143 3144 3144 3145 3145 3146 3146 3147 3148 3148 3149 3150 3150 3151 3151 3151 3151 3152 3152 3152 3152 3153 3154 3155 3156 3157 3157 3158 3159 3159 3159 3159 3160 3161 3161 3162 3162 3163 3163 3164 3165 3165 3166 3167 3168 3169 3170 3171 3172 3172 3173 3174 3175 3175 3176 3177 3178 3178 3179 3179 3180 3180 3181 3182
3143 3142 3142 3142 3141 3141 3141 3140 3140 3140 3140 3140 3140 3140 3140 3140 3140 3140 3140 3140 3140 3140 3140 3140 3140 3140 3140 3140 3141 3141 3140 3140 3140 3140 3140 3140 3141 3142 3142 3142 3142 3142 3142 3143 3143 3144 3145 3145 3146 3147 3147 3148 3148 3149 3149 3150 3150 3150 3150 3151 3151 3152 3153 3154 3154 3155 3156 3157 3157 3157 3158 3158 3159 3159 3160 3160 3161 3162 3162 3163 3164 3165 3166 3166 3167 3168 3170 3170 3171 3172 3173 3174 3174 3175 3176 3177 3177 3178 3178 3179 3180 3180 3181
3140 3140 3139 3139 3138 3138 3138 3137 3137 3137 3137 3137 3137 3137 3137 3137 3137 3137 3137 3137 3137 3137 3137 3137 3137 3137 3137 3137 3137 3137 3138 3138 3138 3138 3137 3137 3138 3139 3138 3139 3139 3140 3140 3140 3141 3141 3142 3143 3144 3144 3145 3146 3147 3147 3147 3148 3148 3148 3149 3149 3150 3150 3151 3152 3152 3153 3154 3155 3155 3156 3156 3157 3157 3158 3158 3158 3159 3160 3160 3161 3162 3163 3164 3165 3166 3167 3168 3169 3170 3171 3172 3172 3173 3174 3175 3176 3177 3177 3178 3178 3179 3179 3180
3137 3137 3136 3136 3135 3135 3135 3135 3134 3134 3134 3134 3134 3134 3134 3134 3134 3134 3134 3134 3134 3135 3135 3135 3135 3135 3135 3135 3134 3135 3135 3136 3136 3135 3135 3135 3135 3136 3136 3137 3137 3137 3137 3138 3138 3139 3139 3140 3141 3142 3143 3144 3144 3145 3145 3146 3147 3147 3147 3147 3148 3148 3149 3150 3151 3151 3152 3153 3153 3154 3154 3155 3156 3156 3156 3157 3157 3158 3159 3159 3160 3162 3162 3163 3165 3166 3167 3168 3169 3170 3171 3172 3172 3173 3174 3175 3176 3176 3177 3177 3178 3178 3179
3134 3134 3133 3133 3132 3132 3132 3132 3131 3131 3131 3131 3131 3131 3131 3131 3131 3131 3131 3131 3132 3132 3132 3132 3132 3132 3132 3132 3132 3132 3132 3132 3133 3133 3133 3132 3133 3133 3134 3135 3135 3135 3135 3135 3136 3136 3137 3137 3138 3139 3140 3141 3142 3142 3143 3144 3144 3145 3145 3146 3146 3147 3147 3148 3149 3149 3150 3151 3151 3152 3152 3153 3154 3154 3154 3155 3156 3156 3157 3157 3159 3160 3161 3162 3163 3164 3165 3166 3167 3168 3169 3170 3171 3172 3173 3174 3175 3176 3176 3177 3177 3178 3178
3132 3131 3131 3130 3130 3129 3129 3128 3128 3128 3128 3127 3127 3128 3128 3128 3128 3128 3128 3128 3129 3129 3130 3130 3130 3130 3130 3130 3129 3129 3129 3129 3129 3130 3130 3130 3130 3131 3131 3132 3132 3132 3132 3132 3133 3133 3134 3135 3136 3137 3138 3139 3139 3140 3141 3142 3142 3143 3143 3144 3145 3145 3146 3147 3147 3147 3148 3148 3149 3149 3150 3151 3152 3152 3153 3153 3154 3155 3155 3156 3157 3159 3160 3161 3162 3162 3163 3165 3166 3167 3168 3169 3170 3171 3172 3173 3174 3174 3175 3176 3177 3177 3178
3129 3128 3127 3127 3127 3126 3126 3125 3125 3125 3124 3124 3124 3124 3124 3125 3125 3125 3125 3125 3126 3126 3127 3127 3127 3127 3127 3127 3127 3127 3127 3127 3127 3127 3127 3127 3128 3128 3128 3129 3129 3129 3130 3130 3130 3130 3131 3132 3133 3134 3135 3136 3137 3138 3138 3139 3140 3141 3142 3142 3143 3143 3144 3145 3145 3146 3146 3147 3147 3147 3148 3148 3149 3150 3151 3151 3152 3153 3154 3155 3156 3157 3158 3159 3160 3161 3162 3163 3164 3165 3166 3167 3168 3169 3170 3172 3172 3173 3174 3175 3176 3176 3177
3126 3126 3125 3124 3123 3123 3122 3122 3122 3122 3121 3121 3121 3121 3121 3121 3121 3122 3122 3122 3122 3123 3124 3124 3124 3125 3124 3124 3124 3123 3123 3123 3124 3124 3124 3125 3125 3125 3126 3126 3126 3127 3127 3127 3128 3128 3128 3129 3130 3131 3132 3133 3134 3135 3136 3137 3137 3138 3140 3140 3141 3141 3142 3143 3144 3144 3144 3145 3145 3146 3147 3147 3147 3148 3148 3149 3150 3151 3152 3153 3154 3155 3156 3157 3157 3158 3160 3161 3162 3163 3164 3165 3167 3167 3169 3170 3171 3172 3173 3174 3174 3175 3176
3123 3123 3122 3121 3121 3120 3120 3119 3119 3118 3118 3118 3118 3118 3118 3118 3118 3118 3118 3119 3119 3120 3120 3121 3121 3122 3122 3121 3121 3121 3121 3121 3121 3121 3122 3122 3122 3122 3123 3123 3124 3124 3125 3125 3126 3126 3126 3127 3127 3128 3130 3131 3132 3132 3133 3134 3135 3136 3137 3138 3139 3139 3140 3141 3142 3142 3142 3143 3143 3144 3145 3145 3145 3145 3146 3147 3148 3149 3150 3151 3152 3153 3154 3155 3156 3157 3158 3159 3160 3162 3162 3163 3165 3166 3167 3168 3169 3170 3171 3172 3173 3174 3175
3120 3120 3119 3118 3117 3117 3117 3116 3116 3115 3115 3115 3115 3115 3115 3115 3115 3115 3115 3116 3116 3117 3117 3117 3118 3118 3118 3118 3118 3118 3118 3118 3118 3118 3119 3119 3119 3120 3120 3121 3121 3122 3122 3123 3123 3124 3125 3125 3125 3126 3127 3128 3129 3130 3130 3131 3132 3133 3135 3136 3137 3137 3138 3139 3140 3140 3140 3141 3142 3142 3143 3143 3142 3143 3144 3145 3146 3147 3148 3150 3151 3152 3152 3153 3154 3156 3157 3157 3158 3160 3161 3162 3163 3164 3165 3166 3167 3168 3170 3171 3172 3173 3173
3117 3116 3116 3115 3114 3114 3113 3113 3112 3112 3112 3112 3112 3112 3112 3112 3112 3112 3112 3112 3112 3113 3113 3114 3114 3115 3115 3115 3115 3115 3115 3116 3116 3116 3116 3117 3117 3117 3117 3118 3119 3119 3120 3120 3121 3121 3122 3122 3122 3123 3124 3125 3126 3127 3127 3128 3129 3131 3132 3133 3134 3135 3136 3137 3137 3138 3139 3139 3140 3140 3141 3141 3141 3141 3142 3143 3144 3145 3147 3148 3149 3150 3151 3152 3153 3154 3155 3155 3156 3157 3159 3160 3161 3162 3163 3164 3166 3167 3168 3169 3170 3171 3172
3112 3112 3112 3111 3111 3110 3110 3109 3109 3109 3108 3108 3108 3108 3108 3108 3108 3108 3109 3109 3109 3109 3110 3110 3111 3111 3112 3112 3112 3112 3112 3113 3113 3113 3114 3114 3114 3115 3115 3115 3116 3116 3117 3118 3118 3119 3120 3120 3120 3121 3121 3122 3123 3124 3125 3126 3127 3127 3129 3130 3132 3132 3133 3134 3135 3136 3137 3137 3138 3139 3140 3140 3140 3140 3141 3142 3142 3144 3145 3146 3147 3148 3149 3150 3151 3152 3153 3154 3154 3155 3157 3158 3159 3160 3162 3162 3164 3165 3166 3167 3168 3169 3170
3108 3108 3107 3107 3107 3107 3106 3106 3106 3105 3105 3105 3105 3105 3105 3105 3105 3105 3106 3106 3106 3106 3106 3107 3107 3108 3108 3108 3109 3109 3109 3110 3110 3111 3111 3112 3112 3112 3112 3112 3113 3113 3114 3115 3116 3116 3117 3117 3117 3118 3118 3119 3120 3121 3122 3123 3124 3125 3126 3127 3129 3130 3131 3132 3132 3133 3134 3135 3135 3136 3137 3138 3138 3139 3139 3140 3141 3142 3143 3144 3145 3146 3147 3148 3149 3150 3151 3152 3153 3154 3155 3156 3157 3159 3160 3161 3162 3163 3164 3165 3167 3168 3169
3104 3103 3103 3103 3103 3103 3102 3102 3102 3102 3101 3101 3101 3102 3102 3102 3102 3102 3102 3102 3102 3103 3103 3103 3104 3104 3105 3105 3105 3106 3106 3107 3107 3107 3108 3109 3109 3110 3110 3110 3110 3110 3111 3112 3112 3113 3114 3115 3116 3116 3116 3116 3117 3118 3119 3120 3121 3122 3123 3124 3126 3127 3128 3129 3130 3131 3132 3132 3133 3134 3135 3136 3136 3137 3137 3138 3140 3141 3142 3142 3143 3144 3145 3146 3147 3148 3149 3150 3151 3152 3153 3155 3156 3157 3158 3159 3160 3162 3162 3164 3165 3166 3167
3099 3099 3098 3098 3098 3098 3098 3098 3098 3097 3097 3097 3097 3098 3098 3099 3099 3099 3099 3099 3100 3100 3100 3100 3100 3101 3101 3102 3102 3102 3103 3103 3104 3104 3105 3106 3107 3107 3107 3107 3107 3108 3108 3109 3109 3110 3111 3112 3113 3114 3113 3113 3114 3115 3116 3117 3117 3119 3120 3121 3122 3124 3125 3126 3127 3128 3129 3130 3130 3132 3133 3133 3134 3135 3136 3137 3138 3139 3140 3140 3141 3142 3143 3144 3145 3147 3147 3148 3150 3151 3152 3153 3154 3155 3157 3157 3159 3160 3161 3162 3163 3164 3165
3095 3094 3094 3094 3094 3094 3094 3093 3093 3093 3093 3093 3094 3094 3095 3095 3095 3096 3096 3096 3097 3097 3097 3096 3097 3097 3098 3098 3099 3099 3099 3100 3101 3101 3102 3102 3103 3104 3104 3104 3105 3105 3105 3106 3107 3107 3108 3109 3111 3111 3110 3110 3111 3112 3112 3113 3114 3116 3117 3118 3119 3121 3122 3123 3124 3125 3126 3127 3128 3130 3131 3131 3131 3133 3134 3135 3136 3137 3137 3138 3139 3140 3141 3142 3143 3144 3146 3147 3148 3149 3150 3151 3152 3153 3155 3156 3157 3158 3159 3160 3162 3162 3164
3092 3091 3090 3090 3089 3089 3089 3089 3089 3089 3089 3089 3090 3090 3091 3091 3092 3092 3092 3093 3093 3093 3093 3093 3093 3093 3094 3095 3095 3096 3096 3097 3097 3098 3098 3100 3101 3101 3102 3102 3102 3102 3103 3103 3103 3104 3105 3107 3108 3108 3107 3107 3108 3108 3109 3110 3112 3113 3114 3116 3117 3118 3119 3120 3121 3122 3124 3125 3126 3127 3128 3128 3129 3130 3132 3133 3134 3135 3135 3136 3137 3137 3139 3140 3141 3142 3143 3145 3146 3147 3148 3149 3151 3152 3153 3154 3155 3157 3157 3159 3160 3161 3162
3088 3087 3086 3086 3085 3085 3085 3085 3085 3085 3084 3085 3086 3086 3087 3087 3087 3088 3088 3089 3090 3090 3090 3090 3090 3090 3091 3091 3092 3092 3093 3093 3094 3094 3095 3097 3098 3099 3100 3100 3100 3101 3101 3101 3100 3101 3103 3105 3105 3105 3105 3105 3105 3106 3107 3108 3109 3110 3111 3113 3114 3116 3117 3117 3118 3120 3121 3122 3123 3124 3125 3126 3127 3128 3130 3131 3132 3132 3133 3133 3134 3135 3136 3137 3139 3140 3141 3142 3144 3145 3147 3147 3149 3150 3151 3152 3154 3155 3156 3157 3158 3159 3160
3085 3084 3083 3082 3082 3082 3081 3081 3081 3080 3080 3081 3082 3082 3082 3082 3083 3083 3084 3085 3086 3087 3087 3087 3087 3087 3088 3088 3088 3089 3089 3090 3090 3091 3092 3094 3095 3096 3097 3098 3099 3099 3099 3098 3098 3098 3100 3102 3102 3102 3101 3101 3102 3103 3105 3106 3107 3107 3108 3109 3111 3112 3114 3115 3116 3117 3118 3119 3120 3121 3123 3124 3125 3126 3127 3128 3129 3130 3131 3131 3132 3132 3133 3135 3136 3138 3139 3141 3142 3143 3144 3146 3147 3148 3149 3151 3152 3153 3154 3155 3156 3157 3159
3082 3081 3080 3079 3079 3078 3077 3077 3077 3076 3077 3077 3077 3078 3078 3078 3078 3079 3080 3081 3082 3082 3083 3084 3084 3084 3085 3085 3085 3085 3086 3087 3087 3088 3089 3091 3092 3093 3094 3096 3097 3097 3097 3096 3096 3096 3096 3098 3099 3098 3097 3098 3099 3101 3102 3103 3104 3105 3105 3106 3107 3109 3110 3112 3113 3114 3115 3116 3117 3118 3120 3122 3122 3124 3125 3126 3127 3128 3128 3129 3129 3130 3131 3132 3134 3135 3137 3138 3140 3141 3142 3144 3145 3146 3147 3149 3150 3151 3152 3153 3154 3156 3157
3079 3078 3077 3077 3076 3075 3074 3074 3073 3073 3073 3073 3073 3074 3073 3073 3074 3075 3075 3076 3077 3078 3079 3080 3081 3081 3081 3082 3082 3082 3083 3083 3084 3085 3086 3087 3089 3090 3091 3092 3094 3094 3094 3094 3093 3093 3093 3095 3096 3095 3095 3096 3097 3098 3099 3100 3101 3102 3103 3104 3105 3105 3107 3108 3109 3110 3112 3113 3114 3116 3117 3119 3120 3121 3122 3124 3125 3125 3126 3127 3127 3128 3129 3130 3132 3133 3135 3136 3137 3139 3140 3142 3143 3144 3146 3147 3148 3149 3150 3152 3152 3154 3155
3077 3075 3074 3074 3073 3072 3072 3071 3070 3070 3070 3070 3070 3070 3069 3069 3070 3070 3071 3071 3072 3073 3074 3076 3077 3077 3078 3078 3079 3079 3080 3080 3081 3082 3083 3084 3085 3086 3087 3089 3090 3091 3091 3091 3091 3091 3091 3092 3092 3093 3093 3094 3094 3095 3096 3097 3098 3099 3101 3102 3102 3102 3104 3105 3106 3107 3109 3110 3111 3113 3115 3116 3117 3119 3120 3122 3122 3123 3124 3125 3126 3126 3127 3127 3129 3131 3132 3134 3135 3137 3138 3139 3141 3142 3143 3145 3146 3147 3148 3150 3151 3152 3153
3074 3072 3072 3071 3070 3069 3069 3068 3067 3067 3067 3067 3067 3066 3065 3065 3066 3066 3067 3067 3068 3069 3070 3071 3072 3073 3074 3075 3076 3076 3077 3077 3078 3079 3079 3081 3082 3083 3084 3085 3086 3087 3088 3088 3088 3089 3089 3089 3089 3090 3090 3091 3091 3092 3093 3095 3096 3097 3097 3097 3098 3100 3100 3101 3103 3104 3105 3107 3109 3111 3112 3114 3115 3116 3117 3119 3120 3121 3122 3123 3123 3124 3125 3126 3127 3129 3131 3132 3133 3134 3136 3137 3138 3140 3141 3142 3144 3145 3147 3148 3149 3150 3151
3071 3070 3069 3068 3067 3067 3066 3065 3065 3064 3064 3064 3063 3062 3062 3062 3062 3062 3062 3063 3063 3064 3065 3066 3067 3069 3070 3071 3072 3072 3073 3074 3074 3075 3076 3077 3078 3079 3080 3082 3082 3083 3084 3085 3086 3086 3086 3085 3086 3087 3087 3087 3087 3088 3090 3092 3094 3094 3095 3095 3096 3096 3097 3098 3099 3101 3102 3104 3106 3108 3109 3111 3113 3114 3115 3116 3117 3119 3120 3120 3121 3122 3123 3124 3126 3127 3128 3130 3131 3132 3133 3135 3136 3137 3139 3140 3142 3143 3144 3146 3147 3148 3149
3067 3067 3066 3065 3064 3063 3063 3062 3062 3062 3061 3061 3060 3059 3058 3058 3058 3058 3058 3059 3059 3060 3061 3062 3063 3064 3065 3066 3067 3068 3069 3070 3071 3072 3072 3074 3074 3075 3077 3077 3078 3080 3081 3081 3082 3082 3082 3081 3082 3082 3083 3083 3083 3085 3087 3089 3091 3092 3092 3093 3093 3093 3094 3095 3097 3098 3099 3101 3102 3105 3107 3109 3111 3112 3113 3113 3114 3116 3117 3118 3119 3120 3122 3123 3124 3125 3127 3128 3129 3130 3131 3132 3134 3135 3137 3138 3139 3141 3142 3143 3145 3146 3147
3064 3064 3063 3062 3062 3061 3060 3059 3059 3059 3058 3058 3057 3057 3056 3056 3055 3055 3055 3055 3056 3056 3057 3057 3058 3059 3060 3062 3062 3063 3064 3066 3067 3068 3069 3070 3071 3072 3072 3073 3074 3075 3076 3077 3078 3079 3079 3078 3078 3079 3080 3080 3081 3081 3082 3084 3086 3088 3089 3089 3090 3091 3092 3093 3094 3095 3096 3098 3099 3102 3104 3106 3108 3109 3110 3111 3111 3113 3114 3115 3116 3118 3119 3121 3122 3123 3125 3127 3128 3128 3129 3130 3131 3133 3134 3136 3137 3138 3140 3141 3142 3144 3145
3061 3061 3060 3059 3058 3057 3057 3057 3056 3056 3056 3055 3054 3054 3053 3053 3052 3052 3052 3052 3052 3052 3052 3053 3054 3054 3056 3057 3058 3059 3060 3061 3062 3063 3065 3066 3067 3068 3069 3069 3070 3071 3072 3073 3074 3075 3076 3076 3076 3076 3077 3078 3079 3079 3080 3081 3082 3083 3084 3085 3087 3088 3089 3090 3091 3092 3093 3095 3096 3098 3100 3102 3104 3106 3107 3108 3109 3110 3111 3112 3114 3116 3117 3118 3119 3121 3123 3124 3126 3127 3127 3128 3129 3131 3132 3133 3135 3136 3137 3139 3140 3142 3143
3058 3057 3057 3056 3055 3054 3054 3053 3053 3053 3052 3052 3051 3051 3050 3050 3050 3049 3049 3049 3049 3049 3049 3049 3050 3050 3051 3052 3053 3054 3056 3057 3057 3059 3061 3062 3063 3064 3065 3066 3066 3067 3068 3069 3070 3071 3072 3073 3073 3073 3074 3075 3076 3077 3078 3078 3079 3079 3080 3082 3083 3085 3086 3088 3089 3090 3091 3092 3094 3095 3096 3097 3100 3102 3103 3105 3106 3107 3108 3109 3111 3112 3114 3116 3117 3119 3120 3122 3123 3124 3126 3127 3127 3128 3130 3131 3132 3134 3135 3137 3138 3139 3141
3056 3055 3054 3053 3052 3052 3051 3050 3050 3050 3050 3049 3048 3047 3047 3047 3047 3047 3047 3046 3046 3046 3046 3046 3046 3046 3047 3048 3049 3050 3051 3052 3053 3054 3056 3057 3059 3060 3062 3062 3063 3063 3064 3065 3066 3067 3069 3070 3070 3070 3071 3072 3072 3073 3075 3076 3077 3077 3077 3078 3080 3082 3083 3085 3086 3087 3088 3090 3091 3092 3093 3094 3096 3098 3099 3101 3102 3103 3105 3107 3108 3110 3112 3113 3115 3117 3118 3120 3121 3122 3123 3125 3126 3126 3127 3129 3130 3132 3133 3134 3136 3137 3138
3054 3053 3052 3051 3050 3049 3048 3047 3047 3047 3047 3046 3045 3045 3044 3044 3043 3043 3043 3043 3043 3043 3042 3042 3042 3043 3043 3044 3045 3045 3046 3047 3048 3050 3051 3053 3054 3056 3057 3059 3059 3060 3061 3062 3063 3064 3065 3066 3067 3067 3067 3068 3069 3070 3071 3072 3074 3075 3075 3076 3076 3078 3080 3082 3083 3085 3086 3087 3088 3089 3090 3091 3093 3095 3096 3097 3099 3101 3102 3104 3106 3107 3109 3112 3113 3114 3116 3117 3118 3119 3121 3122 3123 3124 3126 3127 3128 3129 3131 3132 3133 3135 3136
3052 3051 3050 3049 3047 3047 3045 3045 3044 3043 3043 3043 3042 3042 3041 3040 3040 3040 3040 3040 3040 3040 3040 3040 3040 3039 3039 3040 3041 3041 3042 3042 3044 3045 3047 3048 3050 3052 3053 3054 3056 3057 3058 3058 3059 3060 3062 3063 3063 3064 3065 3065 3066 3067 3068 3070 3071 3072 3073 3073 3074 3075 3076 3078 3080 3082 3083 3084 3085 3087 3087 3089 3090 3092 3093 3095 3096 3098 3100 3102 3103 3105 3107 3109 3111 3112 3113 3115 3116 3117 3119 3120 3121 3122 3123 3125 3126 3127 3128 3129 3131 3132 3134
3050 3049 3048 3047 3046 3044 3043 3042 3042 3041 3040 3040 3039 3039 3038 3037 3037 3036 3036 3036 3037 3037 3037 3037 3037 3036 3036 3036 3037 3037 3037 3039 3040 3041 3042 3043 3046 3047 3049 3050 3052 3053 3054 3055 3056 3057 3058 3059 3060 3061 3062 3062 3063 3065 3066 3067 3069 3070 3071 3072 3072 3072 3073 3075 3077 3078 3080 3081 3083 3084 3085 3087 3088 3089 3090 3092 3093 3095 3097 3099 3101 3102 3104 3107 3108 3109 3111 3112 3113 3115 3117 3117 3118 3119 3121 3122 3123 3124 3126 3127 3128 3130 3131
3048 3047 3046 3045 3043 3042 3041 3040 3039 3038 3038 3037 3037 3036 3035 3034 3034 3033 3033 3032 3032 3033 3033 3033 3033 3033 3033 3033 3033 3033 3034 3035 3036 3036 3037 3039 3041 3043 3044 3045 3047 3048 3049 3050 3052 3053 3054 3055 3057 3058 3059 3060 3061 3062 3063 3065 3066 3067 3069 3070 3070 3071 3071 3072 3074 3075 3077 3078 3080 3082 3083 3084 3085 3087 3088 3089 3091 3092 3094 3096 3098 3100 3102 3104 3105 3107 3108 3109 3111 3112 3114 3115 3116 3117 3118 3120 3121 3121 3122 3123 3125 3127 3129
3046 3045 3043 3042 3041 3040 3039 3038 3037 3036 3035 3035 3034 3033 3032 3032 3031 3030 3030 3029 3029 3029 3029 3029 3030 3030 3030 3030 3030 3030 3030 3031 3032 3032 3033 3035 3037 3038 3039 3041 3042 3044 3045 3047 3048 3049 3050 3052 3053 3054 3055 3056 3057 3059 3061 3062 3063 3065 3066 3067 3068 3069 3069 3070 3071 3072 3074 3075 3077 3079 3081 3082 3083 3084 3085 3087 3088 3090 3091 3093 3095 3097 3099 3100 3102 3104 3105 3107 3108 3109 3111 3112 3113 3115 3116 3118 3119 3119 3119 3121 3122 3124 3126
3044 3043 3042 3040 3039 3038 3037 3036 3035 3034 3033 3032 3031 3031 3030 3029 3028 3027 3027 3027 3026 3026 3026 3026 3026 3026 3027 3027 3027 3027 3027 3027 3028 3028 3029 3031 3032 3033 3034 3036 3038 3039 3041 3042 3044 3045 3047 3048 3050 3051 3052 3052 3054 3056 3058 3059 3061 3062 3063 3064 3065 3066 3067 3068 3069 3070 3071 3072 3074 3076 3078 3079 3081 3082 3083 3084 3085 3087 3088 3090 3092 3094 3096 3097 3099 3101 3102 3104 3105 3106 3108 3109 3111 3112 3113 3115 3116 3117 3117 3119 3120 3121 3123
3041 3040 3039 3038 3037 3036 3034 3033 3032 3032 3031 3030 3029 3028 3027 3026 3025 3024 3024 3023 3023 3023 3023 3022 3022 3022 3022 3023 3024 3024 3023 3024 3024 3025 3025 3027 3027 3028 3030 3032 3033 3035 3036 3038 3040 3042 3043 3045 3046 3047 3048 3049 3051 3053 3054 3056 3057 3059 3060 3061 3062 3063 3063 3065 3066 3067 3068 3069 3071 3073 3075 3076 3078 3079 3080 3081 3082 3084 3086 3087 3089 3091 3092 3094 3096 3097 3099 3101 3102 3103 3106 3106 3108 3110 3111 3112 3113 3114 3115 3117 3118 3119 3121
3039 3038 3037 3036 3034 3033 3032 3031 3030 3029 3028 3027 3026 3026 3025 3024 3023 3022 3021 3021 3020 3020 3020 3020 3019 3019 3019 3019 3020 3020 3020 3020 3021 3021 3021 3022 3023 3024 3026 3027 3029 3030 3032 3033 3035 3037 3039 3041 3042 3044 3045 3046 3048 3049 3051 3053 3054 3056 3057 3058 3059 3060 3060 3062 3063 3064 3065 3066 3068 3070 3072 3073 3074 3076 3077 3078 3080 3081 3082 3084 3086 3087 3089 3091 3093 3094 3096 3097 3099 3101 3102 3104 3105 3107 3109 3110 3110 3111 3112 3114 3116 3117 3119
3037 3036 3034 3033 3032 3031 3030 3028 3027 3027 3026 3025 3024 3023 3022 3021 3020 3020 3019 3018 3017 3017 3017 3017 3017 3016 3016 3016 3016 3016 3017 3017 3017 3017 3017 3018 3019 3021 3022 3023 3024 3026 3027 3029 3031 3033 3035 3037 3038 3040 3041 3043 3045 3046 3047 3050 3051 3053 3054 3055 3057 3058 3058 3059 3060 3061 3062 3063 3064 3066 3068 3069 3071 3073 3074 3076 3077 3078 3080 3081 3083 3084 3086 3088 3090 3091 3093 3095 3097 3098 3100 3102 3103 3104 3106 3107 3108 3109 3110 3112 3113 3115 3117
3035 3034 3032 3031 3030 3028 3027 3026 3025 3024 3023 3022 3021 3021 3020 3019 3018 3017 3017 3016 3015 3014 3014 3014 3014 3013 3013 3012 3012 3012 3013 3013 3013 3013 3014 3014 3015 3016 3017 3019 3020 3022 3023 3025 3027 3028 3030 3032 3034 3036 3038 3040 3041 3043 3044 3046 3048 3049 3050 3052 3053 3055 3056 3057 3058 3059 3060 3061 3062 3063 3065 3066 3068 3070 3072 3073 3074 3076 3077 3079 3080 3082 3083 3085 3087 3088 3090 3092 3093 3095 3097 3099 3101 3102 3103 3104 3105 3107 3108 3110 3111 3112 3114
3033 3032 3031 3029 3028 3027 3025 3024 3023 3022 3020 3020 3019 3018 3017 3017 3016 3015 3014 3013 3012 3012 3011 3011 3011 3011 3010 3010 3009 3009 3009 3009 3010 3010 3011 3011 3011 3012 3013 3015 3016 3017 3019 3021 3022 3024 3026 3028 3030 3032 3034 3036 3037 3039 3041 3043 3044 3046 3047 3049 3050 3052 3053 3054 3056 3057 3058 3059 3060 3061 3062 3063 3065 3067 3069 3070 3072 3073 3075 3076 3078 3079 3081 3082 3084 3085 3087 3089 3091 3092 3094 3097 3098 3099 3100 3102 3103 3105 3106 3107 3109 3110 3112
3032 3030 3029 3027 3026 3025 3023 3022 3021 3019 3018 3017 3017 3016 3015 3014 3013 3012 3012 3011 3010 3009 3008 3008 3008 3008 3008 3007 3007 3007 3006 3006 3006 3007 3007 3007 3007 3008 3009 3011 3012 3014 3015 3016 3018 3020 3022 3023 3026 3028 3030 3032 3033 3035 3037 3038 3039 3041 3043 3045 3046 3048 3050 3051 3052 3054 3055 3056 3057 3058 3059 3061 3062 3064 3066 3068 3069 3071 3072 3074 3075 3077 3078 3080 3081 3082 3084 3086 3087 3089 3091 3093 3095 3097 3098 3099 3101 3102 3104 3105 3106 3108 3109
3030 3028 3027 3026 3024 3023 3022 3020 3019 3017 3016 3015 3014 3013 3012 3012 3011 3010 3009 3008 3007 3007 3006 3005 3005 3005 3005 3005 3005 3004 3004 3003 3003 3003 3003 3004 3004 3005 3006 3006 3008 3010 3012 3013 3014 3016 3017 3019 3021 3023 3025 3027 3028 3030 3031 3032 3034 3037 3039 3040 3042 3043 3045 3046 3048 3050 3052 3053 3054 3055 3057 3058 3060 3061 3063 3065 3067 3068 3070 3071 3072 3074 3075 3077 3078 3080 3081 3082 3084 3086 3088 3090 3092 3094 3095 3097 3098 3100 3101 3102 3104 3106 3107
3028 3027 3025 3024 3022 3021 3020 3018 3017 3016 3014 3013 3012 3011 3010 3009 3008 3007 3007 3006 3005 3004 3003 3002 3002 3002 3002 3002 3002 3002 3002 3001 3001 3001 3000 3000 3001 3001 3002 3003 3004 3006 3007 3009 3011 3012 3013 3014 3016 3017 3019 3021 3023 3024 3026 3027 3030 3032 3033 3035 3037 3039 3040 3041 3043 3045 3047 3048 3050 3052 3053 3055 3057 3058 3060 3062 3063 3065 3067 3068 3069 3071 3072 3074 3075 3077 3078 3080 3081 3083 3085 3087 3089 3091 3092 3094 3095 3097 3099 3100 3102 3103 3105
3027 3025 3024 3022 3021 3019 3018 3017 3015 3014 3013 3012 3010 3009 3008 3007 3006 3005 3005 3004 3003 3002 3001 3000 3000 3000 2999 2999 2998 2998 2999 2998 2998 2998 2998 2997 2997 2997 2998 2999 3001 3002 3003 3005 3007 3008 3009 3010 3011 3012 3014 3016 3018 3020 3022 3024 3026 3028 3029 3031 3033 3034 3035 3037 3039 3041 3042 3044 3046 3047 3049 3051 3053 3055 3057 3058 3060 3062 3063 3065 3067 3068 3070 3071 3072 3074 3075 3077 3078 3080 3082 3084 3085 3087 3089 3091 3093 3095 3096 3098 3099 3101 3102
3025 3023 3022 3020 3019 3017 3016 3015 3013 3012 3011 3010 3009 3007 3007 3005 3004 3003 3002 3002 3001 3000 2999 2998 2998 2998 2998 2997 2996 2996 2996 2996 2996 2996 2995 2994 2994 2994 2995 2995 2996 2997 2999 3002 3003 3005 3005 3005 3006 3007 3009 3012 3014 3017 3019 3021 3022 3024 3026 3028 3029 3030 3032 3034 3035 3037 3038 3039 3041 3043 3045 3048 3050 3051 3053 3055 3057 3059 3060 3062 3063 3065 3067 3068 3069 3071 3072 3074 3076 3077 3079 3081 3082 3084 3086 3088 3090 3092 3093 3095 3097 3098 3100
3023 3021 3020 3018 3017 3016 3014 3013 3012 3010 3009 3008 3007 3006 3005 3004 3002 3001 3000 2999 2998 2997 2997 2996 2995 2995 2996 2995 2994 2994 2994 2993 2993 2993 2992 2991 2992 2992 2992 2992 2993 2994 2995 2997 3000 3001 3001 3001 3002 3003 3006 3008 3010 3012 3014 3017 3018 3021 3022 3024 3026 3027 3029 3030 3032 3033 3034 3036 3037 3040 3042 3044 3046 3047 3049 3051 3053 3055 3057 3059 3061 3062 3063 3065 3067 3068 3069 3071 3072 3074 3076 3077 3079 3081 3083 3085 3087 3089 3091 3093 3094 3096 3098
3021 3019 3018 3017 3015 3014 3012 3011 3010 3008 3007 3006 3005 3004 3003 3002 3001 3000 2998 2997 2996 2996 2995 2994 2993 2993 2992 2992 2992 2992 2992 2992 2991 2991 2990 2989 2989 2990 2990 2990 2990 2990 2990 2992 2994 2996 2998 2997 2999 3001 3003 3004 3005 3007 3010 3012 3014 3017 3018 3021 3022 3024 3025 3027 3028 3029 3031 3032 3034 3036 3038 3040 3041 3043 3045 3047 3049 3052 3054 3056 3057 3059 3061 3062 3063 3065 3067 3068 3070 3072 3073 3074 3076 3078 3080 3082 3084 3086 3088 3090 3092 3094 3096
3019 3017 3016 3015 3013 3012 3011 3009 3008 3007 3005 3004 3003 3002 3001 3000 2999 2998 2997 2996 2994 2993 2993 2992 2992 2991 2990 2990 2990 2990 2990 2990 2989 2989 2988 2987 2987 2987 2987 2987 2987 2987 2987 2989 2990 2991 2993 2994 2996 2998 3000 3000 3001 3003 3005 3008 3010 3012 3014 3017 3018 3020 3021 3023 3024 3026 3027 3029 3030 3032 3033 3035 3037 3038 3041 3043 3045 3047 3050 3052 3054 3056 3057 3059 3061 3062 3064 3066 3067 3069 3070 3071 3073 3075 3077 3078 3081 3083 3085 3087 3089 3091 3093
3017 3016 3014 3013 3011 3010 3008 3007 3006 3005 3003 3002 3001 3000 2999 2998 2997 2996 2995 2994 2992 2992 2991 2990 2989 2989 2988 2987 2987 2988 2988 2988 2987 2987 2987 2986 2986 2986 2985 2983 2983 2985 2986 2988 2987 2986 2987 2990 2992 2995 2996 2997 2998 3000 3002 3004 3006 3008 3011 3012 3014 3016 3018 3019 3021 3022 3023 3025 3026 3028 3030 3031 3033 3035 3037 3039 3041 3043 3046 3048 3050 3052 3054 3056 3057 3059 3061 3062 3064 3066 3067 3068 3070 3072 3073 3075 3077 3079 3082 3084 3086 3087 3089
3015 3014 3012 3011 3009 3008 3007 3005 3004 3003 3002 3000 2999 2998 2997 2996 2995 2994 2993 2992 2991 2990 2989 2988 2987 2987 2987 2985 2985 2985 2986 2986 2985 2985 2985 2984 2984 2984 2983 2983 2982 2982 2982 2983 2982 2982 2984 2987 2988 2990 2992 2994 2996 2996 2997 2999 3002 3004 3007 3008 3010 3012 3014 3015 3017 3019 3020 3022 3024 3026 3027 3028 3030 3032 3034 3035 3037 3040 3042 3044 3046 3048 3050 3052 3054 3056 3057 3059 3061 3063 3064 3066 3067 3069 3070 3072 3074 3076 3078 3080 3082 3084 3086
3013 3012 3010 3009 3007 3006 3005 3003 3002 3001 2999 2998 2997 2996 2995 2994 2993 2992 2991 2990 2989 2988 2987 2986 2985 2985 2984 2983 2983 2982 2982 2982 2983 2983 2983 2982 2982 2982 2982 2982 2981 2981 2980 2980 2979 2980 2982 2984 2986 2986 2986 2990 2992 2993 2993 2996 2998 3001 3002 3004 3006 3008 3010 3011 3013 3015 3017 3019 3022 3023 3025 3026 3027 3029 3030 3032 3034 3036 3038 3040 3042 3044 3046 3048 3050 3052 3054 3056 3058 3060 3061 3063 3065 3066 3068 3069 3071 3073 3075 3077 3079 3081 3083
3011 3010 3008 3007 3005 3004 3002 3001 3000 2998 2997 2996 2995 2994 2993 2992 2991 2990 2989 2988 2987 2987 2985 2984 2983 2983 2982 2981 2980 2980 2979 2980 2980 2980 2981 2981 2980 2980 2980 2979 2979 2978 2979 2978 2979 2979 2980 2982 2982 2981 2979 2985 2989 2991 2990 2993 2995 2997 2998 3000 3002 3004 3006 3008 3010 3012 3014 3016 3018 3020 3021 3023 3025 3026 3027 3029 3031 3033 3035 3037 3039 3041 3042 3044 3046 3048 3050 3052 3054 3056 3058 3060 3062 3064 3065 3067 3068 3070 3072 3074 3076 3078 3080
3009 3007 3006 3005 3003 3002 3000 2999 2998 2996 2995 2994 2993 2992 2991 2990 2989 2988 2987 2986 2986 2984 2983 2982 2982 2981 2980 2979 2978 2977 2977 2977 2977 2977 2978 2978 2978 2978 2978 2977 2977 2977 2977 2976 2977 2977 2978 2979 2978 2977 2977 2982 2985 2986 2987 2990 2992 2993 2995 2997 2998 3000 3002 3004 3006 3008 3011 3012 3014 3016 3018 3020 3021 3023 3024 3026 3028 3030 3032 3034 3036 3038 3040 3041 3043 3045 3047 3049 3051 3053 3055 3057 3059 3061 3063 3064 3066 3067 3069 3071 3073 3075 3077
3007 3005 3004 3002 3001 2999 2998 2997 2996 2994 2993 2992 2991 2989 2988 2987 2987 2986 2985 2984 2983 2982 2982 2981 2980 2979 2978 2977 2976 2976 2976 2975 2974 2974 2975 2975 2975 2975 2976 2975 2975 2975 2975 2975 2975 2975 2976 2976 2976 2975 2977 2979 2979 2980 2984 2987 2987 2988 2991 2993 2994 2996 2998 3000 3003 3005 3007 3008 3010 3012 3014 3016 3017 3019 3022 3023 3025 3027 3028 3031 3033 3035 3037 3038 3040 3042 3043 3045 3047 3049 3052 3054 3056 3058 3060 3062 3063 3065 3067 3068 3070 3072 3074
3005 3003 3002 3000 2999 2997 2996 2995 2993 2992 2991 2990 2988 2987 2986 2985 2984 2983 2983 2982 2981 2981 2980 2979 2978 2977 2976 2975 2974 2974 2973 2973 2972 2972 2972 2972 2972 2973 2973 2973 2972 2972 2973 2973 2973 2973 2973 2974 2974 2975 2976 2976 2975 2976 2980 2982 2984 2985 2987 2989 2991 2992 2995 2997 2999 3001 3002 3004 3006 3008 3010 3012 3014 3016 3018 3020 3021 3023 3025 3027 3029 3032 3034 3036 3037 3039 3041 3042 3044 3046 3048 3051 3053 3055 3057 3059 3061 3062 3064 3066 3067 3069 3071